This demonstration page uses our WeatherBlox Daily Observations layout. Learn more.

Left ArrowRight Arrow

39.08367, -84.50855

Hourly Observations for December 7, 2019

Temp ( °F °C ) Dew Point ( °F °C ) Humidity (%) Winds ( mph kmh ) Pressure ( in mb ) Visibility ( mi km ) Precip ( " mm )
12:51 am 00:51 Clear with Mist and Fog 25 -4 25 -4 100 100 N N/A 30.40 1029 2 2 N/A
12:53 am 00:53 Clear with Mist and Fog 25 -3.9 24 -4.4 96 96 N N/A 30.36 1028 1 2 N/A
1:04 am 01:04 Clear with Mist and Fog 26 -3.3 24 -4.4 92 92 N N/A 30.40 1029 3 5 N/A
1:19 am 01:19 Clear with Mist and Fog 26 -3.3 24 -4.4 92 92 N N/A 30.40 1029 1 2 N/A
1:28 am 01:28 Clear with Freezing Fog 27 -2.8 25 -3.9 92 92 N N/A 30.39 1029 1 1 N/A
1:53 am 01:53 Clear with Freezing Fog 25 -3.9 23 -5 92 92 N N/A 30.37 1029 0 0 N/A
2:20 am 02:20 Clear with Mist and Fog 24 -4.4 22 -5.6 91 91 N N/A 30.41 1030 1 2 N/A
2:29 am 02:29 Clear with Mist and Fog 24 -4.4 22 -5.6 91 91 N N/A 30.41 1030 1 1 N/A
2:34 am 02:34 Clear with Mist and Fog 24 -4.4 23 -5 96 96 N N/A 30.41 1030 3 4 N/A
2:42 am 02:42 Clear with Mist and Fog 24 -4.4 23 -5 96 96 N N/A 30.41 1030 1 1 N/A
2:53 am 02:53 Clear with Mist and Fog 25 -3.9 24 -4.4 96 96 N N/A 30.39 1029 1 2 N/A
2:56 am 02:56 Clear with Mist and Fog 22 -5.6 22 -5.6 100 100 N N/A 30.42 1030 3 5 N/A
3:02 am 03:02 Clear with Mist and Fog 22 -5.6 21 -6.1 96 96 N N/A 30.42 1030 2 2 N/A
3:22 am 03:22 Clear with Freezing Fog 22 -5.6 19 -7.2 89 89 N N/A 30.43 1030 0 0 N/A
3:34 am 03:34 Clear with Mist and Fog 22 -5.6 21 -6.1 96 96 N N/A 30.43 1030 1 1 N/A
3:45 am 03:45 Clear with Freezing Fog 21 -6.1 19 -7.2 92 92 N N/A 30.43 1031 0 0 N/A
3:53 am 03:53 Clear with Freezing Fog 22 -5.6 21 -6.1 96 96 N N/A 30.40 1030 0 0 N/A
4:17 am 04:17 Clear with Mist and Fog 24 -4.4 22 -5.6 91 91 N N/A 30.43 1030 1 2 N/A
4:29 am 04:29 Clear with Mist and Fog 23 -5 22 -5.6 96 96 N N/A 30.44 1031 3 4 N/A
4:36 am 04:36 Clear with Mist and Fog 22 -5.6 22 -5.6 100 100 N N/A 30.44 1031 3 5 N/A
4:53 am 04:53 Clear with Mist and Fog 22 -5.6 20 -6.7 92 92 N N/A 30.41 1030 4 6 N/A
5:53 am 05:53 Clear with Mist and Fog 23 -5 20 -6.7 88 88 NE 3 6 30.43 1030 6 10 N/A
6:53 am 06:53 Clear with Mist and Fog 23 -5 22 -5.6 96 96 NE 3 6 30.44 1031 5 8 N/A
7:53 am 07:53 Sunny with Mist and Fog 22 -5.6 21 -6.1 96 96 NE 3 6 30.44 1031 5 8 N/A
8:53 am 08:53 Sunny with Mist and Fog 24 -4.4 24 -4.4 100 100 N N/A 30.45 1031 5 8 N/A
9:53 am 09:53 Sunny 29 -1.7 28 -2.2 96 96 N N/A 30.45 1031 10 16 N/A
10:53 am 10:53 Sunny 36 2.2 28 -2.2 73 73 N N/A 30.46 1032 10 16 N/A
11:53 am 11:53 Sunny 40 4.4 29 -1.7 65 65 ENE 6 9 30.45 1031 10 16 N/A
12:53 pm 12:53 Sunny 42 5.6 28 -2.2 58 58 NE 9 15 30.43 1031 10 16 N/A
1:53 pm 13:53 Sunny 44 6.7 27 -2.8 51 51 VRB 6 9 30.41 1030 10 16 N/A
2:53 pm 14:53 Sunny 45 7.2 25 -3.9 46 46 E 6 9 30.40 1029 10 16 N/A
3:53 pm 15:53 Sunny 45 7.2 25 -3.9 46 46 ESE 3 6 30.38 1029 10 16 N/A
4:53 pm 16:53 Sunny 41 5 25 -3.9 53 53 ENE 8 13 30.39 1029 10 16 N/A
5:53 pm 17:53 Clear 33 0.6 26 -3.3 75 75 E 3 6 30.38 1029 10 16 N/A
6:53 pm 18:53 Clear 30 -1.1 25 -3.9 82 82 NE 3 6 30.37 1029 10 16 N/A
7:53 pm 19:53 Clear 28 -2.2 25 -3.9 88 88 N N/A 30.38 1029 10 16 N/A
8:53 pm 20:53 Clear 28 -2.2 24 -4.4 85 85 N N/A 30.37 1028 10 16 N/A
9:53 pm 21:53 Clear 28 -2.2 25 -3.9 88 88 N N/A 30.35 1028 10 16 N/A
10:53 pm 22:53 Clear 25 -3.9 23 -5 92 92 N N/A 30.34 1027 9 14 N/A
11:53 pm 23:53 Clear 24 -4.4 21 -6.1 88 88 undefined N/A 30.34 1027 8 13 N/A

Powered by AerisWeather